This is the latest recevied weather packets stored in our database for station/object KC0EQQ-13. If no packets are shown the sender has not sent any weather packets the latest 10 day(s).
| Time | Temp. | Humidity | Pressure | Rain* | Wind** | Luminosity | Snow |
|---|---|---|---|---|---|---|---|
| 1788139979 | 79° F | 77% | 741.7 mmHg | 0 in | - | 0 W/m² | - |
| 1788139373 | 80° F | 78% | 741.7 mmHg | 0 in | - | 0 W/m² | - |
| 1788138767 | 80° F | 77% | 741.7 mmHg | 0 in | - | 0 W/m² | - |
| 1788138161 | 80° F | 76% | 741.7 mmHg | 0 in | - | 0 W/m² | - |
| 1788137554 | 81° F | 74% | 741.7 mmHg | 0 in | - | 0 W/m² | - |
| 1788136948 | 82° F | 72% | 741.7 mmHg | 0 in | - | 0 W/m² | - |
| 1788136342 | 83° F | 69% | 741.4 mmHg | 0 in | - | 0 W/m² | - |
| 1788135736 | 84° F | 67% | 741.7 mmHg | 0 in | - | 1 W/m² | - |
| 1788135130 | 84° F | 65% | 741.4 mmHg | 0 in | - | 2 W/m² | - |
| 1788134524 | 85° F | 63% | 741.4 mmHg | 0 in | - | 5 W/m² | - |
| 1788133918 | 86° F | 61% | 741.7 mmHg | 0 in | - | 8 W/m² | - |
| 1788133312 | 86° F | 60% | 741.4 mmHg | 0 in | - | 11 W/m² | - |
| 1788132706 | 86° F | 60% | 741.4 mmHg | 0 in | - | 13 W/m² | - |
| 1788132100 | 87° F | 59% | 741.4 mmHg | 0 in | - | 15 W/m² | - |
| 1788131493 | 87° F | 59% | 741.4 mmHg | 0 in | - | 17 W/m² | - |
| 1788130887 | 87° F | 58% | 741.4 mmHg | 0 in | - | 20 W/m² | - |
| 1788130281 | 88° F | 58% | 741.1 mmHg | 0 in | - | 21 W/m² | - |
| 1788129675 | 88° F | 57% | 741.4 mmHg | 0 in | - | 25 W/m² | - |
| 1788129069 | 89° F | 54% | 741.1 mmHg | 0 in | - | 25 W/m² | - |
| 1788128463 | 90° F | 53% | 741.1 mmHg | 0 in | - | 39 W/m² | - |
| 1788127857 | 91° F | 52% | 741.1 mmHg | 0 in | - | 38 W/m² | - |
| 1788127251 | 90° F | 52% | 741.1 mmHg | 0 in | - | 269 W/m² | - |
| 1788126645 | 91° F | 51% | 741.1 mmHg | 0 in | - | 298 W/m² | - |
| 1788126039 | 91° F | 53% | 741.1 mmHg | 0 in | - | 329 W/m² | - |
| 1788125433 | 90° F | 53% | 741.4 mmHg | 0 in | - | 356 W/m² | - |
* Rain latest hour (hover to see other rain measurements)
** Current wind speed in m/s (hover to see current wind gust speed)